Flag for U.S.A. Weather past 2 weeks in Bryan – College Station, Texas, U.S.A.

Now
87 °F

Partly sunny.


Feels Like: 95 °F
Forecast: 72 / 90 °F
Wind: 8 mph from Southwest

Location: Easterwood Field

Current Time: Jul 2, 2015 at 1:28:21 PM

Latest Report: Jul 2, 2015 at 12:53 PM


Visibility: 10 mi

Pressure: 30.02 "Hg

Humidity: 63%

Dew point: 73 °F

Location of Bryan – College StationLocation

Historic Weather in Bryan – College Station — Graph

°F

Bryan – College Station temperature yesterday

Maximum temperature yesterday: 88 °F (at 3:53 PM)
Minimum temperature yesterday: 72 °F (at 4:53 AM)
Average temperature yesterday: 77 °F

Past Weeks' High & Low Weather Summary

 TemperatureHumidityPressure
High93 °F (Jun 26, 4:53 PM)97% (Jun 18, 12:53 PM)30.16 "Hg (Jun 18, 12:53 PM)
Low71 °F (Jul 2, 2:53 AM)47% (Jun 26, 4:53 PM)29.85 "Hg (Jun 17, 5:53 PM)
Average81 °F79%30.02 "Hg
* Reported Jun 17 11:53 AM — Jul 2 11:53 AM, Bryan – College Station, Weather by CustomWeather, © 2015

Note: Actual official high and low records may vary slightly from our data, if they occured in-between our weather recording intervals... More about our weather records

Advertising

Bryan – College Station weather history for previous 24 hours

 ConditionsComfort  
Time TempWeatherWind HumidityBarometerVisibility
11:53 AM
Thu, Jul 2
85 °FBroken clouds.14 mph68%30.02 "Hg10 mi
10:53 AM82 °FMostly cloudy.13 mph77%30.02 "Hg10 mi
9:53 AM79 °FPartly sunny.8 mph79%30.04 "Hg10 mi
8:53 AM75 °FBroken clouds.7 mph88%30.04 "Hg10 mi
7:53 AM73 °FLow clouds.8 mph94%30.01 "Hg8 mi
6:53 AM72 °FFog.8 mph93%30.01 "Hg5 mi
5:53 AM71 °FClear.5 mph93%30.01 "Hg10 mi
4:53 AM71 °FPassing clouds.5 mph93%30.01 "Hg10 mi
3:53 AM71 °FClear.6 mph93%29.99 "Hg10 mi
2:53 AM71 °FClear.5 mph93%29.98 "Hg10 mi
1:53 AM72 °FClear.6 mph91%29.99 "Hg10 mi
12:53 AM72 °FClear.7 mph91%30.02 "Hg10 mi
11:53 PM
Wed, Jul 1
73 °FClear.9 mph88%30.03 "Hg10 mi
10:53 PM73 °FClear.7 mph90%30.03 "Hg10 mi
9:53 PM74 °FClear.8 mph91%30.01 "Hg10 mi
8:53 PM76 °FSunny.6 mph88%30.01 "Hg10 mi
7:53 PM79 °FSunny.7 mph77%29.99 "Hg10 mi
6:53 PM79 °FSunny.8 mph79%29.99 "Hg10 mi
5:53 PM76 °FScattered clouds.6 mph88%30.01 "Hg10 mi
4:53 PM74 °FLight rain. Fog.16 mph91%30.06 "Hg5 mi
3:53 PM88 °FPassing clouds.14 mph63%30.02 "Hg10 mi
2:53 PM84 °FPassing clouds.5 mph67%30.02 "Hg10 mi
1:53 PM80 °FBroken clouds.13 mph74%30.04 "Hg10 mi
Weather by CustomWeather, © 2015

See weather overviewHow to use our weather pages